Location: Radomski Observatory
(40.2854°N, 79.5145°W)
Time: 15:50:10
(UTC-04:00)

Daily predictions for brighter satellites

Satellite Brightness Start Highest point End
(mag) Time Altitude Azimuth Time Altitude Azimuth Time Altitude Azimuth
Cosmos 2056 Rocket 4.0 21:01:47 10° SSW 21:06:54 66° WNW 21:12:00 10° NNE
Atlas Centaur 2 3.1 21:07:26 10° SW 21:09:34 15° SSW 21:11:38 10° SSE
Cosmos 1356 Rocket 4.3 21:05:40 10° SSW 21:09:50 56° WNW 21:14:05 10° N
COS B Rocket 4.3 21:07:56 10° NNE 21:11:14 25° E 21:14:14 10° SE
Meteor 2-6 Rocket 4.3 21:06:13 10° N 21:12:10 75° E 21:17:56 10° SSE
CZ-4 DEB 2.7 21:11:02 10° SSE 21:14:11 72° ENE 21:17:21 10° N
Meteor 2-10 Rocket 4.3 21:09:04 10° NNW 21:14:47 64° W 21:20:19 10° S
Cosmos 1833 Rocket 4.5 21:11:22 10° N 21:14:59 17° NE 21:18:35 10° E
Cosmos 1844 Rocket 3.0 21:12:58 10° SSW 21:18:37 74° WNW 21:24:16 10° NNE
COSMOS 2406 4.1 21:13:57 10° NW 21:19:27 49° WSW 21:24:54 10° S
Cosmos 1825 2.8 21:15:58 10° SSE 21:19:29 36° E 21:23:01 10° NNE
Cosmos 1939 Rocket 3.3 21:16:24 10° SE 21:20:04 43° ENE 21:23:50 10° N
Cosmos 2278 Rocket 2.3 21:15:16 10° S 21:20:48 56° ESE 21:26:21 10° NNE
GPS 2-05 Rocket1 3.6 21:17:27 10° WSW 21:20:57 38° S 21:24:07 12° ESE
FENGYUN 3A 4.4 21:17:19 10° S 21:22:35 54° W 21:27:51 10° NNW
Cosmos 1674 Rocket 3.7 21:19:06 10° N 21:23:34 80° W 21:27:58 10° S
SL-27 R/B 3.8 21:20:27 10° NNW 21:23:53 40° WSW 21:27:14 10° S
Cosmos 1844 3.9 21:21:09 10° SSW 21:26:55 85° WNW 21:32:46 10° NNE
ALOS 3.6 21:23:20 10° SSW 21:27:43 40° W 21:32:07 10° NNW
Okean 2 Rocket 3.7 21:28:15 10° SSE 21:32:18 36° E 21:36:19 10° NNE
SJ-11-01 4.3 21:29:54 10° SSE 21:34:39 88° W 21:39:25 10° NNW
Envisat 3.1 21:32:08 10° SSE 21:37:09 64° ENE 21:42:11 10° N
SEDSat Delta rocket 4.4 21:34:20 10° SW 21:37:27 19° SSE 21:39:01 16° SE
USA 186 4.1 21:35:14 10° SSW 21:37:54 24° W 21:40:40 10° NW
PSLV R/B 4.5 21:38:39 18° ESE 21:39:52 23° ENE 21:42:19 10° NNE
Cosmos 1782 Rocket 3.7 21:35:43 10° S 21:40:03 55° E 21:44:26 10° NNE
Cosmos 2082 Rocket 3.2 21:36:01 10° N 21:41:06 32° ENE 21:44:56 16° ESE
CZ-4 SHROUD 4.5 21:41:47 19° ESE 21:43:04 25° ENE 21:45:42 10° NNE
Nadezhda 3 Rocket 4.0 21:38:09 10° N 21:44:33 84° E 21:50:56 10° S
Intercosmos 25 3.8 21:43:01 18° SE 21:44:58 30° E 21:47:47 10° NNE
OAO 3 Rocket 4.0 21:40:35 10° SW 21:45:01 33° SSE 21:48:02 17° ESE
Sich 1 Rocket 4.3 21:41:06 10° SSW 21:45:37 58° W 21:50:09 10° N
Cosmos 2084 4.4 21:43:31 10° SW 21:47:14 46° NW 21:50:56 10° NNE
ERS-1 Rocket 3.3 21:44:01 10° S 21:49:01 67° WSW 21:54:03 10° NNW
Cosmos 1420 Rocket 4.0 21:44:05 10° S 21:49:16 66° ESE 21:54:27 10° NNE
APEX 3.5 21:46:06 10° S 21:49:52 57° ESE 21:54:49 10° NNE
COSMOS 2487 2.6 21:48:27 10° NNW 21:52:05 79° WSW 21:54:41 18° SSE
DNEPR-1 R/B 3.9 21:47:15 10° NNW 21:52:36 67° NE 21:55:33 22° SE
Cosmos 1975 Rocket 3.0 21:50:59 10° N 21:55:19 70° E 21:58:29 18° SSE
Cosmos 1140 Rocket 3.4 21:51:12 10° NNW 21:56:22 77° ENE 22:00:06 19° SSE
Cosmos 2297 3.8 21:52:42 10° S 21:58:16 58° ESE 22:03:54 10° NNE
EO 1 Delta rocket 4.2 21:56:55 10° N 22:02:51 80° W 22:07:43 10° SSW
Terra 3.7 22:01:13 13° E 22:02:55 16° ENE 22:05:44 10° NNE
Cosmos 1378 Rocket 4.1 22:00:22 10° NNW 22:04:37 56° W 22:08:46 10° S
ISS -1.2 22:03:43 10° W 22:06:38 29° NNW 22:09:33 10° NE
CZ-4B R/B 3.8 22:02:20 10° NNE 22:06:58 40° E 22:09:18 24° SSE
Cosmos 1606 4.2 22:04:16 10° NNW 22:07:53 36° W 22:11:28 10° SSW
MetOp-B 4.1 22:04:33 20° SSE 22:08:17 73° ENE 22:13:39 10° N
H-2A R/B 3.4 22:11:12 20° E 22:13:21 26° ENE 22:17:40 10° NNE
Cosmos 2341 Rocket 4.3 22:07:07 10° SSW 22:13:23 70° W 22:19:39 10° N
Cosmos 1238 Rocket 3.5 22:10:28 10° NNW 22:13:45 47° W 22:17:07 13° SSW
BREEZE-M DEB (TANK) 4.3 22:13:00 10° NW 22:14:14 14° N 22:15:44 10° NE
Cosmos 1184 Rocket 4.3 22:14:22 10° SSW 22:17:29 37° WNW 22:20:38 10° N
SPOT 5 3.2 22:14:02 18° S 22:18:02 76° WSW 22:23:26 10° NNW
SL-8 Rocket 3.9 22:13:59 11° S 22:20:04 79° E 22:26:19 10° N
Abrixas 2.8 22:22:32 10° SW 22:24:56 49° SSW 22:24:56 49° SSW
USA 245 3.1 22:25:48 48° SE 22:26:41 74° ENE 22:30:55 10° N
Cosmos 2369 Rocket 4.3 22:29:37 11° ENE 22:29:37 11° ENE 22:30:04 10° ENE
SPOT 1/Viking Rocket 3.5 22:26:12 31° SSE 22:28:47 77° ENE 22:34:01 10° N
Cosmos 1242 Rocket 3.3 22:26:06 10° NNW 22:29:40 49° W 22:31:23 26° SSW
Lacrosse 5 3.0 22:31:52 26° E 22:31:52 26° E 22:34:44 10° ENE
ARGOS 3.1 22:27:48 32° SSE 22:30:19 70° ENE 22:35:40 10° N
Timation 2 Rocket 4.1 22:24:42 10° NNW 22:30:37 65° WSW 22:34:07 25° S
Elektron 3 4.5 22:27:45 10° NW 22:30:42 58° SW 22:31:54 38° S
H-2A R/B 3.5 22:29:41 13° SSW 22:33:02 32° W 22:36:50 10° NW
YAOGAN 6 2.9 22:33:23 38° SSW 22:34:28 58° W 22:37:57 10° NNW
Cosmos 2151 Rocket 3.5 22:36:40 33° S 22:38:42 87° E 22:43:16 10° N
CZ-4C R/B 3.9 22:38:45 40° E 22:39:07 41° ENE 22:43:01 10° N
USA 229 DEB 3.7 22:39:50 10° NW 22:47:00 89° ENE 22:50:15 36° SSE
USA 229 3.7 22:39:56 10° NW 22:47:06 88° ENE 22:50:21 36° SE
Cosmos 1300 Rocket 4.0 22:49:12 44° E 22:49:12 44° E 22:53:23 10° NNE
Cosmos 864 Rocket 4.4 22:45:50 25° S 22:49:39 90° W 22:55:51 10° N
ASTEX 1 4.2 22:47:08 10° NNE 22:51:33 33° E 22:51:33 33° E
Meteor 1-20 Rocket 4.1 22:50:14 40° SSE 22:52:13 70° E 22:57:43 10° NNE
Timation 1 Rocket 4.2 22:48:54 17° SSW 22:53:34 81° ESE 22:59:36 10° NNE
Okean 1 Rocket 3.5 22:56:16 45° E 22:56:16 45° E 23:00:17 10° NNE
Cosmos 1833 Rocket 2.7 22:53:56 10° NNW 22:59:33 77° WSW 23:01:16 46° S
Cosmos 2366 rocket 4.2 22:57:17 20° SSW 23:01:44 69° W 23:08:05 10° N
Cosmos 1331 Rocket 3.8 23:05:38 45° SSW 23:07:15 89° ESE 23:12:26 10° NNE
CZ-4 R/B 4.1 23:05:01 10° N 23:09:38 62° WNW 23:11:24 35° SW
Meteor 1-25 Rocket 4.5 23:06:56 29° SSW 23:10:00 71° W 23:15:50 10° N
Okean 1-7 Rocket 3.7 23:08:56 10° N 23:13:10 60° ENE 23:13:10 60° ENE
Okean 1 3.4 23:10:48 10° N 23:14:37 77° NNW 23:14:37 77° NNW
Cosmos 1110 Rocket 4.2 23:13:24 31° SW 23:15:55 67° WNW 23:21:07 10° NNE
DMSP B5D2-2 3.9 23:14:41 10° NNE 23:19:56 81° ESE 23:20:37 67° S
Landsat 7 4.1 23:23:53 53° SW 23:24:27 57° W 23:29:10 10° NNW
Cosmos 2082 Rocket 3.2 23:20:01 10° NW 23:25:11 36° WSW 23:26:48 30° SW
ATLAS 2AS CENTAUR R/B 4.5 23:18:50 10° NNW 23:25:41 28° NE 23:30:49 15° E
Cosmos 1812 3.6 23:23:53 10° NNW 23:27:16 45° WNW 23:27:16 45° WNW
CARTOSAT-1 3.9 23:32:46 60° W 23:32:46 60° W 23:36:48 10° NNW
NOSS 3-1 (C) 4.1 23:26:50 10° NNW 23:34:26 75° NE 23:37:01 48° SE
Genesis I 4.5 23:37:08 38° NNE 23:37:08 38° NNE 23:39:42 10° NNE
Cosmos 1000 Rocket 4.4 23:30:26 10° N 23:36:43 83° E 23:37:43 65° SSE
Meteor 2-4 Rocket 4.1 23:31:53 10° N 23:37:11 48° ENE 23:37:12 48° ENE
Terra 2.1 23:40:06 57° WSW 23:40:11 57° W 23:44:52 10° NNW
Cosmos 2239 Rocket 4.4 23:40:41 66° SSE 23:41:35 80° E 23:47:54 10° N
BREEZE-M TANK 3.1 23:33:57 10° WNW 23:41:50 57° N 23:42:07 56° NNE
USA 234 3.1 23:35:32 10° NE 23:42:05 72° SE 23:43:56 49° SSW
ISS 0.0 23:42:28 10° NNW 23:43:52 12° N 23:45:17 10° NNE
Cosmos 1486 Rocket 4.0 23:39:15 10° NNW 23:44:34 70° WSW 23:44:40 70° WSW
Cosmos 1354 Rocket 4.2 23:39:57 10° NNW 23:45:03 62° ENE 23:45:03 62° ENE
Meteor 1-13 Rocket 4.3 23:42:46 10° NNW 23:48:42 72° W 23:49:25 65° SW
H-2A R/B 2.9 23:51:51 38° WSW 23:52:31 40° W 23:57:31 10° NNW
